Hauptseite
METAR-TAF:

METAR-TAF

Flughäfen :

Padua, Italien

Flugplatz Padua

Breite: 45-23-45N, Länge: 11-50-53E, Höhe: 13 m

Beobachtung

Neuester Wetterbericht von vor 4 Stunden und 8 Minuten, um 06:00 UTC
Wind 4 kt aus Nord, variierte zwischen Nord/Nordwest und Nordost
Temperatur 15°C
Luftfeuchtigkeit 72%
Luftdruck 1029 hPa
Sichtweite 10 km oder mehr
keine Wolken unter 1500 m und keine Kumulonimbus oder Gewitterwolken

METAR: LIPU 190600Z 01004KT 330V050 CAVOK 15/10 Q1029

Zeit: 12:08 (10:08 UTC)


TAF: fehlend

Wetterbeobachtungen und Prognosen von mehr als 4000 Flughäfen (METAR und TAF Bericht).

Die verfügbaren Stationen werden durch gelbe und rote Markierungen auf der Karte dargestellt.

Führen Sie die Maus auf sie, um den Namen der Station zu sehen.

Darauf klicken, um die Beobachtung von Wetterbeobachtungen und Prognosen zu sehen.

Um die Karte zu ändern : klicken Sie auf den grünen Tasten mit einem schwarzen Kreuz Zum Vergrößern, auf den grünen Button mit einem Gedankenstrich zu verkleinern, oder auf die grünen Pfeile für benachbarte Karten.


METAR-TAF: